• în România
  • Lista ţărilor
  • Pe 7 zile
  • Temperatura apei
  • Hartă satelitară
  • Meteo pe hartă
  • Widget-uri
  • user-avatar
    Intrare

    Meteo pe oră la Uige

    Astăzi, 28 Martie, Marţi

    Timp Temperatura Precipitaţii Vânt Presiune Umiditate
    00:00 +23°C° 0,1 mm 1 m/s 691 mmHg 94%
    01:00 +23°C° 0,1 mm 1 m/s 691 mmHg 95%
    02:00 +23°C° 0,1 mm 1 m/s 691 mmHg 95%
    03:00 +23°C° 0,1 mm 1 m/s 691 mmHg 95%
    04:00 +23°C° 0,1 mm 1 m/s 691 mmHg 95%
    05:00 +23°C° 0 mm 1 m/s 691 mmHg 95%
    06:00 +23°C° 0 mm 1 m/s 691 mmHg 94%
    07:00 +23°C° 0 mm 1 m/s 691 mmHg 92%
    08:00 +26°C° 0 mm 1 m/s 692 mmHg 80%
    09:00 +29°C° 0 mm 1 m/s 692 mmHg 68%
    10:00 +31°C° 0 mm 2 m/s 692 mmHg 56%
    11:00 +33°C° 0,1 mm 1 m/s 692 mmHg 51%
    12:00 +34°C° 0,1 mm 1 m/s 692 mmHg 46%
    13:00 +36°C° 0,1 mm 1 m/s 692 mmHg 41%
    14:00 +35°C° 0,3 mm 1 m/s 691 mmHg 44%
    15:00 +34°C° 0,3 mm 1 m/s 690 mmHg 47%
    16:00 +33°C° 0,3 mm 1 m/s 689 mmHg 50%
    17:00 +31°C° 0,2 mm 1 m/s 689 mmHg 59%
    18:00 +28°C° 0,2 mm 1 m/s 689 mmHg 69%
    19:00 +25°C° 0,2 mm 1 m/s 689 mmHg 78%
    20:00 +25°C° 0,2 mm 1 m/s 689 mmHg 82%
    21:00 +24°C° 0,2 mm 1 m/s 689 mmHg 86%
    22:00 +21°C° 0,2 mm 0 m/s 690 mmHg 89%
    23:00 +23°C° 0 mm 1 m/s 690 mmHg 90%

    Mâine, 29 Martie, Miercuri

    Timp Temperatura Precipitaţii Vânt Presiune Umiditate
    00:00 +23°C° 0 mm 1 m/s 690 mmHg 90%
    01:00 +23°C° 0 mm 1 m/s 690 mmHg 90%
    02:00 +23°C° 0 mm 1 m/s 690 mmHg 93%
    03:00 +23°C° 0 mm 1 m/s 690 mmHg 95%
    04:00 +22°C° 0 mm 1 m/s 689 mmHg 98%
    05:00 +23°C° 0 mm 1 m/s 690 mmHg 97%
    06:00 +23°C° 0 mm 1 m/s 690 mmHg 96%
    07:00 +23°C° 0 mm 1 m/s 690 mmHg 96%
    08:00 +25°C° 0 mm 1 m/s 691 mmHg 87%
    09:00 +27°C° 0 mm 1 m/s 691 mmHg 79%
    10:00 +29°C° 0 mm 1 m/s 692 mmHg 71%
    11:00 +30°C° 0,1 mm 1 m/s 691 mmHg 65%
    12:00 +31°C° 0,1 mm 1 m/s 691 mmHg 59%
    13:00 +33°C° 0,1 mm 1 m/s 690 mmHg 53%
    14:00 +32°C° 0,9 mm 1 m/s 690 mmHg 60%
    15:00 +31°C° 0,9 mm 1 m/s 689 mmHg 67%
    16:00 +30°C° 0,9 mm 1 m/s 688 mmHg 73%
    17:00 +26°C° 1,2 mm 0 m/s 688 mmHg 80%
    18:00 +24°C° 1,2 mm 0 m/s 689 mmHg 87%
    19:00 +22°C° 1,2 mm 0 m/s 689 mmHg 93%
    20:00 +22°C° 3 mm 0 m/s 690 mmHg 94%
    21:00 +24°C° 3 mm 1 m/s 690 mmHg 95%
    22:00 +23°C° 3 mm 1 m/s 691 mmHg 95%
    23:00 +23°C° 1,2 mm 1 m/s 691 mmHg 96%

    Poimâine, 30 Martie, Joi

    Timp Temperatura Precipitaţii Vânt Presiune Umiditate
    00:00 +23°C° 1,2 mm 1 m/s 690 mmHg 96%
    01:00 +23°C° 1,2 mm 1 m/s 690 mmHg 97%
    02:00 +23°C° 0,8 mm 1 m/s 690 mmHg 97%
    03:00 +20°C° 0,8 mm 0 m/s 690 mmHg 97%
    04:00 +20°C° 0,8 mm 0 m/s 690 mmHg 98%
    05:00 +20°C° 0,6 mm 0 m/s 690 mmHg 97%
    06:00 +21°C° 0,6 mm 0 m/s 690 mmHg 97%
    07:00 +21°C° 0,6 mm 0 m/s 691 mmHg 97%
    08:00 +21°C° 0,7 mm 0 m/s 691 mmHg 95%
    09:00 +22°C° 0,7 mm 0 m/s 692 mmHg 93%
    10:00 +22°C° 0,7 mm 0 m/s 692 mmHg 91%
    11:00 +24°C° 0,1 mm 0 m/s 692 mmHg 83%
    12:00 +28°C° 0,1 mm 1 m/s 691 mmHg 75%
    13:00 +29°C° 0,1 mm 1 m/s 691 mmHg 67%
    14:00 +28°C° 0,1 mm 1 m/s 690 mmHg 70%
    15:00 +28°C° 0,1 mm 1 m/s 690 mmHg 73%
    16:00 +25°C° 0,1 mm 0 m/s 689 mmHg 77%
    17:00 +26°C° 0 mm 1 m/s 690 mmHg 80%
    18:00 +24°C° 0 mm 1 m/s 690 mmHg 83%
    19:00 +23°C° 0 mm 1 m/s 690 mmHg 86%
    20:00 +23°C° 0 mm 1 m/s 690 mmHg 87%
    21:00 +22°C° 0 mm 1 m/s 691 mmHg 88%
    22:00 +22°C° 0 mm 1 m/s 691 mmHg 89%
    23:00 +22°C° 0,1 mm 1 m/s 691 mmHg 90%

    31 Martie, Vineri

    Timp Temperatura Precipitaţii Vânt Presiune Umiditate
    00:00 +20°C° 0,1 mm 0 m/s 691 mmHg 91%
    01:00 +19°C° 0,1 mm 0 m/s 690 mmHg 92%
    02:00 +20°C° 0 mm 0 m/s 690 mmHg 91%
    03:00 +22°C° 0 mm 1 m/s 690 mmHg 91%
    04:00 +22°C° 0 mm 1 m/s 690 mmHg 91%
    05:00 +22°C° 0 mm 1 m/s 691 mmHg 90%
    06:00 +22°C° 0 mm 1 m/s 691 mmHg 90%
    07:00 +23°C° 0 mm 1 m/s 692 mmHg 89%
    08:00 +25°C° 0 mm 1 m/s 692 mmHg 79%
    09:00 +27°C° 0 mm 1 m/s 693 mmHg 69%
    10:00 +30°C° 0 mm 1 m/s 694 mmHg 58%
    11:00 +31°C° 0,1 mm 1 m/s 693 mmHg 56%
    12:00 +32°C° 0,1 mm 1 m/s 692 mmHg 54%
    13:00 +33°C° 0,1 mm 1 m/s 692 mmHg 52%
    14:00 +32°C° 0,4 mm 1 m/s 691 mmHg 56%
    15:00 +29°C° 0,4 mm 0 m/s 691 mmHg 61%
    16:00 +28°C° 0,4 mm 0 m/s 690 mmHg 65%
    17:00 +26°C° 0,5 mm 0 m/s 690 mmHg 73%
    18:00 +26°C° 0,5 mm 1 m/s 690 mmHg 81%
    19:00 +24°C° 0,5 mm 1 m/s 690 mmHg 89%
    20:00 +23°C° 0,6 mm 1 m/s 691 mmHg 90%
    21:00 +23°C° 0,6 mm 1 m/s 691 mmHg 91%
    22:00 +23°C° 0,6 mm 1 m/s 692 mmHg 92%
    23:00 +22°C° 0,2 mm 1 m/s 691 mmHg 93%

    1 Aprilie, Sâmbătă

    Timp Temperatura Precipitaţii Vânt Presiune Umiditate
    00:00 +22°C° 0,2 mm 1 m/s 691 mmHg 93%
    01:00 +22°C° 0,2 mm 1 m/s 691 mmHg 94%
    02:00 +22°C° 0,4 mm 1 m/s 691 mmHg 94%
    03:00 +22°C° 0,4 mm 1 m/s 691 mmHg 94%
    04:00 +22°C° 0,4 mm 1 m/s 690 mmHg 94%
    05:00 +22°C° 0,8 mm 1 m/s 691 mmHg 94%
    06:00 +22°C° 0,8 mm 1 m/s 691 mmHg 94%
    07:00 +22°C° 0,8 mm 1 m/s 692 mmHg 95%
    08:00 +25°C° 0 mm 1 m/s 692 mmHg 84%
    09:00 +27°C° 0 mm 1 m/s 693 mmHg 74%
    10:00 +29°C° 0 mm 2 m/s 693 mmHg 63%
    11:00 +30°C° 0,1 mm 2 m/s 692 mmHg 61%
    12:00 +31°C° 0,1 mm 1 m/s 691 mmHg 59%
    13:00 +31°C° 0,1 mm 1 m/s 691 mmHg 57%
    14:00 +30°C° 1,1 mm 1 m/s 690 mmHg 62%
    15:00 +30°C° 1,1 mm 1 m/s 690 mmHg 66%
    16:00 +29°C° 1,1 mm 1 m/s 689 mmHg 71%
    17:00 +27°C° 2,2 mm 1 m/s 689 mmHg 77%
    18:00 +26°C° 2,2 mm 1 m/s 690 mmHg 84%
    19:00 +24°C° 2,2 mm 1 m/s 690 mmHg 90%
    20:00 +24°C° 1 mm 1 m/s 690 mmHg 90%
    21:00 +23°C° 1 mm 1 m/s 691 mmHg 90%
    22:00 +23°C° 1 mm 1 m/s 691 mmHg 90%
    23:00 +23°C° 0,7 mm 1 m/s 691 mmHg 92%

    2 Aprilie, Duminică

    Timp Temperatura Precipitaţii Vânt Presiune Umiditate
    00:00 +23°C° 0,7 mm 1 m/s 691 mmHg 93%
    01:00 +22°C° 0,7 mm 1 m/s 690 mmHg 94%
    02:00 +22°C° 0,1 mm 1 m/s 690 mmHg 94%
    03:00 +22°C° 0,1 mm 1 m/s 690 mmHg 95%
    04:00 +21°C° 0,1 mm 1 m/s 690 mmHg 95%
    05:00 +22°C° 0,1 mm 1 m/s 690 mmHg 94%
    06:00 +22°C° 0,1 mm 1 m/s 691 mmHg 94%
    07:00 +23°C° 0,1 mm 1 m/s 691 mmHg 93%
    08:00 +24°C° 0 mm 1 m/s 691 mmHg 89%
    09:00 +25°C° 0 mm 1 m/s 692 mmHg 85%
    10:00 +26°C° 0 mm 1 m/s 692 mmHg 80%
    11:00 +27°C° 0,2 mm 1 m/s 691 mmHg 77%
    12:00 +27°C° 0,2 mm 1 m/s 690 mmHg 74%
    13:00 +28°C° 0,2 mm 1 m/s 690 mmHg 71%
    14:00 +28°C° 0,5 mm 1 m/s 689 mmHg 72%
    15:00 +28°C° 0,5 mm 1 m/s 689 mmHg 74%
    16:00 +28°C° 0,5 mm 1 m/s 689 mmHg 76%
    17:00 +27°C° 0,5 mm 1 m/s 689 mmHg 81%
    18:00 +25°C° 0,5 mm 1 m/s 689 mmHg 86%
    19:00 +23°C° 0,5 mm 1 m/s 689 mmHg 91%
    20:00 +23°C° 1,3 mm 1 m/s 690 mmHg 92%
    21:00 +23°C° 1,3 mm 1 m/s 690 mmHg 93%
    22:00 +23°C° 1,3 mm 1 m/s 690 mmHg 93%
    23:00 +22°C° 0,8 mm 1 m/s 690 mmHg 94%
    Arată mai mult